TimeCST,TemperatureF,Dew PointF,Humidity,Sea Level PressureIn,VisibilityMPH,Wind Direction,Wind SpeedMPH,Gust SpeedMPH,PrecipitationIn,Events,Conditions,WindDirDegrees,DateUTC
2:51 AM,58,44,50,29.90,6,NE,4.5,,,,Partly Cloudy,50,2012-11-05 08:51:00
5:46 AM,51,45,73,29.96,6,Calm,Calm,,,,,,2012-11-05 11:46:00
5:59 AM,46.4,39.2,76,29.99,7.0,Calm,Calm,-,N/A,,Scattered Clouds,0,2012-11-05 11:59:00
6:45 AM,46.4,39.2,76,30.29,10.0,Calm,Calm,-,N/A,,Partly Cloudy,0,2012-11-05 12:45:00
7:46 AM,48.2,41.0,76,30.31,10.0,Calm,Calm,-,N/A,,Scattered Clouds,0,2012-11-05 13:46:00
8:41 AM,55.4,46.4,72,30.07,10.0,Calm,Calm,-,N/A,,Partly Cloudy,0,2012-11-05 14:41:00
8:49 AM,53,45,67,30.07,12,Calm,Calm,,,,Clear,,2012-11-05 14:49:00
9:41 AM,62.6,44.6,52,30.34,10.0,Calm,Calm,-,N/A,,Clear,0,2012-11-05 15:41:00
10:40 AM,68.0,44.6,43,30.34,10.0,Calm,Calm,-,N/A,,Clear,0,2012-11-05 16:40:00
11:40 AM,69,44,29,30.06,16,ESE,4.5,,,,Scattered Clouds,120,2012-11-05 17:40:00
11:47 AM,71.6,41.0,33,29.94,12.0,North,5.8,-,N/A,,Clear,10,2012-11-05 17:47:00
12:41 PM,71.6,41.0,33,30.27,12.0,West,5.8,-,N/A,,Scattered Clouds,270,2012-11-05 18:41:00
1:43 PM,77.0,42.8,29,30.23,14.0,East,9.2,-,N/A,,Mostly Cloudy,90,2012-11-05 19:43:00
2:40 PM,69,47,33,29.90,25,ESE,6.7,,,,Partly Cloudy,120,2012-11-05 20:40:00
2:51 PM,78.8,39.2,24,29.84,14.0,NE,9.2,-,N/A,,Mostly Cloudy,40,2012-11-05 20:51:00
3:46 PM,77.0,35.6,22,30.19,14.0,NE,11.5,-,N/A,,Mostly Cloudy,40,2012-11-05 21:46:00
4:45 PM,75.2,39.2,27,30.19,14.0,ENE,11.5,-,N/A,,Mostly Cloudy,60,2012-11-05 22:45:00
5:40 PM,73,42,22,29.84,25,ESE,6.7,,,,Mostly Cloudy,120,2012-11-05 23:40:00
5:51 PM,69.8,39.2,33,29.92,14.0,NE,9.2,-,N/A,,Scattered Clouds,40,2012-11-05 23:51:00
6:45 PM,66.2,37.4,35,30.23,12.0,NNE,9.2,-,N/A,,Scattered Clouds,30,2012-11-06 00:45:00
7:42 PM,62.6,33.8,34,30.26,10.0,NNE,6.9,-,N/A,,Scattered Clouds,30,2012-11-06 01:42:00
8:40 PM,63,40,31,29.87,6,NE,2.2,,,,Partly Cloudy,40,2012-11-06 02:40:00
11:55 PM,59,37,32,29.94,6,Calm,Calm,,,,Overcast,,2012-11-06 05:55:00